Overview Statistics Trail Chart Weather Telemetry Raw packets
 

This is the latest recevied weather packets stored in our database for station/object KI4MRC-13. If no packets are shown the sender has not sent any weather packets the latest 10 day(s).

<< 1 2 3 4 >>
Time Temp. Humidity Pressure Rain* Wind** Luminosity Snow
1788462517 34.44° C 71% 1013 hPa 0 mm - 117 W/m² -
1788462212 35° C 70% 1013 hPa 0 mm - 124 W/m² -
1788461911 35° C 67% 1013.1 hPa 0 mm - 117 W/m² -
1788461607 35.56° C 65% 1013.2 hPa 0 mm - 442 W/m² -
1788461303 37.22° C 63% 1013.1 hPa 0 mm - 191 W/m² -
1788460999 37.78° C 60% 1013.3 hPa 0 mm - 1033 W/m² -
1788460694 37.22° C 61% 1013.1 hPa 0 mm - 984 W/m² -
1788460388 37.22° C 68% 1013.2 hPa 0 mm - 998 W/m² -
1788460087 37.22° C 66% 1013.1 hPa 0 mm - 910 W/m² -
1788459781 37.22° C 61% 1012.9 hPa 0 mm - 1003 W/m² -
1788459481 36.67° C 62% 1013.1 hPa 0 mm - 972 W/m² -
1788459176 36.67° C 64% 1013.3 hPa 0 mm - 985 W/m² -
1788458871 36.11° C 67% 1013.4 hPa 0 mm - 1009 W/m² -
1788458571 36.11° C 62% 1013.3 hPa 0 mm - 1016 W/m² -
1788458270 35.56° C 64% 1013.4 hPa 0 mm - 1068 W/m² -
1788457969 36.11° C 64% 1013.7 hPa 0 mm - 210 W/m² -
1788457669 36.11° C 66% 1013.7 hPa 0 mm - 1087 W/m² -
1788457364 36.67° C 64% 1013.9 hPa 0 mm - 1031 W/m² -
1788457059 36.67° C 63% 1013.9 hPa 0 mm - 867 W/m² -
1788456756 36.67° C 61% 1014 hPa 0 mm - 1022 W/m² -
1788456455 36.67° C 61% 1013.9 hPa 0 mm - 996 W/m² -
1788456150 36.67° C 63% 1014 hPa 0 mm - 980 W/m² -
1788455846 36.11° C 62% 1014.1 hPa 0 mm - 981 W/m² -
1788455541 36.11° C 64% 1014.2 hPa 0 mm - 989 W/m² -
1788455240 36.67° C 62% 1014.5 hPa 0 mm - 980 W/m² -

* Rain latest hour (hover to see other rain measurements)
** Current wind speed in m/s (hover to see current wind gust speed)